sat.trackr.live / text

‹ back to catalog

STARLINK-5610

NORAD 57244 · 2023-094AC

PAYLOAD ACTIVE UNKNOWN

§ Identity

Operator
Country
US
Launch date
2023-07-07
Launch site
AFWTR
Launch vehicle
Mass (kg)
RCS (m²)

Purposes: comms

External: N2YO · Heavens-Above · Gunter

§ Orbital elements

Epoch: 2026-09-20T07:57:40.847328Z

Period
94.27 min
Inclination
43.0060°
Eccentricity
0.0002127
Mean motion
15.27575761 rev/d
Perigee alt
481.6 km
Apogee alt
484.5 km
Semi-major
6,861.2 km
B*
4.3011e-6
RAAN
0.1704°
Arg perigee
283.8195°
Mean anomaly
76.2420°
Rev number
17,701

§ Raw data

STARLINK-56101 57244U 23094AC  26263.33172277 -.00000144  00000+0  43011-5 0  99942 57244  43.0060   0.1704 0002127 283.8195  76.2420 15.27575761177010

JSON: /api/v1/satellites/57244 · /tle

For live sub-satellite position, see the globe view (requires WebGL).

§ Visibility from observer

Set your observer location to see the next 7 days of passes ≥ 10°. The values pass through the URL so the page stays shareable.

No JS? Fill the form by hand. The geolocation button needs JavaScript.